Location: Unspecified
(49.8670°N, 0.0000°E)
Time: 15:38:50
(UTC+00:00)

Courier 1B Rocket - Pass Details

Date: 29 June 2019
Orbit: 920 x 1202 km, 28.2° (Epoch: 16 July)

Event Time Altitude Azimuth Distance (km) Brightness Sun altitude
Rises 02:18:08 0° 221° (SW) 4,020 - -11.0°
Reaches altitude 10° 02:23:34 10° 190° (S) 2,996 - -10.5°
Exits shadow 02:23:35 10° 190° (S) 2,992 7.0 -10.5°
Maximum altitude 02:25:36 11° 174° (S) 2,874 7.0 -10.4°
Drops below altitude 10° 02:27:36 10° 157° (SSE) 2,940 7.2 -10.2°
Sets 02:32:44 0° 126° (SE) 3,817 8.1 -9.7°
